CYGFM03

Last updated on Wed Sep 23 2026 00:03:10 GMT+0000 (Coordinated Universal Time)

1 41891U 16078H 26265.48117529 .00027005 00000+0 26150-3 0 9993 2 41891 34.9397 301.2778 0002906 42.6911 317.4042 15.65353303544208
UTC large
Height (km)
Speed (km/s)
/
Latitude / Longitude
Inclination (degrees)
Orbital Period (minutes)
Azimuth
Elevation
Range (km)
Doppler Factor

Next 0 passes for location: London (51.5072 / 0.1276)

No passes found over London.
CYGFM03